Zurück zum Katalog

DELTA 1 DEB

AktivLEO
NORAD 12539·DEBRIS·🇺🇸 United States

Gestartet Jul 29, 1976 von Vandenberg Space Force Base

Loading…

Nächste Überflüge (nächste 24 Stunden)

TLE

AktuellSource: Space-Track

Epoche: Sep 14, 2026, 07:02 UTC

1 12539U 76077DU  26257.29338596  .00000039  00000-0  29376-3 0  9996
2 12539 101.7032 176.9175 0341018 110.4470  38.7169 12.79713475140887

Verfolge DELTA 1 DEB in Echtzeit mit AllMySat

Download on the App Store